Find Starlink 36036

NORAD ID: 66608 Int'l Des: 2025-270 Owner: SPXS Country: US Constellation: starlink operational
LEOCIRCULAR

リアルタイム位置

3D地球を読み込み中...

Starlink 36036について

説明を読み込み中...

次回通過

Passes for default location (London). Set your location on the main map for personalized predictions.

高度履歴

Loading altitude history...

軌道要素

1 66608U 25270W 26106.25488026 .00009711 00000-0 36185-3 0 9996
2 66608 43.0006 203.7968 0001335 269.2210 90.8489 15.27590395 23290
Epoch: Apr 16, 2026 • Age: 26 hours

現在のステータス

高度 482.7 km
速度 7.63 km/s
衛星直下点 1.51°N, 50.63°E
打ち上げ日 Nov 22, 2025
運用期間 0.3 years
タイプ internet

技術仕様

分類 Payload
質量 575.00 kg
乾燥質量 530.00 kg
総質量 575.00 kg
長さ 0.30 m
直径 4.10 m
スパン 29.00 m
形状 Box + pan
製造者 SPXS
バスタイプ Starlink V2MO
フェーズステータス In Orbit
所有者/国 SPXS/US

Most Searched